This demonstration page uses our WeatherBlox Daily Observations layout. Learn more.

Left ArrowRight Arrow

36.19886, -115.1175

Hourly Observations for August 25, 2016

Temp ( °F °C ) Dew Point ( °F °C ) Humidity (%) Winds ( mph kmh ) Pressure ( in mb ) Visibility ( mi km ) Precip ( " mm )
12:53 am 00:53 Clear 86 30 36 2.2 17 17 SSW 10 17 29.81 1010 10 16.0934 0 0
1:53 am 01:53 Clear 83 28.3 42 5.6 24 24 N 3 6 29.82 1010 10 16.0934 0 0
2:53 am 02:53 Clear 80 26.7 42 5.6 26 26 NW 6 9 29.82 1010 10 16.0934 0 0
3:53 am 03:53 Clear 78 25.6 41 5 27 27 NNW 5 7 29.83 1010 10 16.0934 0 0
4:53 am 04:53 Clear 77 25 44 6.7 31 31 NW 5 7 29.84 1011 10 16.0934 0 0
5:53 am 05:53 Clear 76 24.4 44 6.7 32 32 N 6 9 29.86 1011 10 16.0934 0 0
6:53 am 06:53 Sunny 77 25 45 7.2 32 32 WNW 5 7 29.88 1012 10 16.0934 0 0
7:53 am 07:53 Sunny 80 26.7 44 6.7 28 28 Calm 29.88 1012 10 16.0934 0 0
8:53 am 08:53 Sunny 85 29.4 42 5.6 22 22 Calm 29.89 1012 10 16.0934 0 0
9:53 am 09:53 Sunny 91 32.8 41 5 17 17 SE 7 11 29.88 1012 10 16.0934 0 0
10:53 am 10:53 Sunny 95 35 38 3.3 14 14 ESE 8 13 29.86 1011 10 16.0934 0 0
11:28 am 11:28 Sunny 99 37.2 37 2.8 12 12 SW 21 33 29.68 1005 10 16.0934 0 0
11:36 am 11:36 Sunny 99 37 37 3 12 12 SSW 18 30 29.68 1005 10 16.0934 0 0
11:53 am 11:53 Sunny 98 36.7 36 2.2 11 11 SSW 20 31 29.85 1011 10 16.0934 0 0
12:53 pm 12:53 Sunny 100 37.8 35 1.7 10 10 SSW 13 20 29.82 1010 10 16.0934 0 0
1:53 pm 13:53 Sunny 100 37.8 35 1.7 10 10 SW 23 37 29.8 1009 10 16.0934 0 0
2:53 pm 14:53 Sunny 100 37.8 34 1.1 10 10 WSW 18 30 29.78 1008 10 16.0934 0 0
3:53 pm 15:53 Sunny 100 37.8 34 1.1 10 10 SW 13 20 29.76 1008 10 16.0934 0 0
4:53 pm 16:53 Sunny 99 37.2 35 1.7 11 11 W 20 31 29.75 1008 10 16.0934 0 0
5:53 pm 17:53 Sunny 98 36.7 34 1.1 11 11 WSW 10 17 29.75 1007 10 16.0934 0 0
6:53 pm 18:53 Sunny 96 35.6 32 0 10 10 WSW 13 20 29.75 1008 10 16.0934 0 0
7:53 pm 19:53 Clear 94 34.4 32 0 11 11 W 7 11 29.76 1008 10 16.0934 0 0
8:53 pm 20:53 Clear 92 33.3 33 0.6 12 12 W 5 7 29.77 1008 10 16.0934 0 0
9:53 pm 21:53 Clear 87 30.6 34 1.1 15 15 Calm 29.78 1009 10 16.0934 0 0
10:53 pm 22:53 Clear 87 30.6 35 1.7 16 16 ESE 6 9 29.78 1008 10 16.0934 0 0
11:53 pm 23:53 Clear 86 30 34 1.1 15 15 SW 7 11 29.78 1009 10 16.0934 0 0

Powered by AerisWeather